Imperial, CA

8:19 PM PDT on July 25, 2017 (GMT -0700)
Imperial County

Weather History for KIPL - July, 2012

Change the Weather History Date:

Monday, July 23, 2012

  Actual Average Record
Temperature  
Mean Temperature 96 °F -  
Max Temperature 107 °F 105 °F 117 °F (2016)
Min Temperature 84 °F 77 °F 67 °F (1961)
Cooling Degree Days 30    
Growing Degree Days 46 (Base 50)    
Moisture  
Dew Point 63 °F    
Average Humidity 37    
Maximum Humidity 61    
Minimum Humidity 20    
Precipitation  
Precipitation 0.00 in - - ()
Sea Level Pressure  
Sea Level Pressure 29.78 in    
Wind  
Wind Speed 8 mph (SE)    
Max Wind Speed 10 mph    
Max Gust Speed 18 mph    
Visibility 10 miles    
Events      
Averages and records for this station are not official NWS values.
T = Trace of Precipitation, MM = Missing Value Source: NWS Daily Summary

Daily Weather History Graph

Daily Weather History Graph

Search for Another Location

Airport or City:

Trip Planner

Search our weather history database for the weather conditions in past years. The results will help you decide how hot, cold, wet, or windy it might be!

Date:

Astronomy

Jul. 23, 2012 Rise Set
Actual Time 5:50 AM PDT 7:46 PM PDT
Civil Twilight 5:22 AM PDT 8:14 PM PDT
Nautical Twilight 4:49 AM PDT 8:47 PM PDT
Astronomical Twilight 4:14 AM PDT 9:22 PM PDT
Moon 10:26 AM PDT (7/23) 10:25 PM PDT (7/23)
Length of Visible Light 14h 51m
Length of Day
13h 56m
Waxing Crescent, 23% of the Moon is Illuminated
Jul 23
Waxing Crescent
Jul 26
First Quarter
Aug 1
Full
Aug 9
Last Quarter
Aug 17
New

Hourly Weather History & Observations

Time (PDT) Temp. Heat Index Dew Point Humidity Pressure Visibility Wind Dir Wind Speed Gust Speed Precip Events Conditions
12:53 AM 91.0 °F 91.9 °F 63.0 °F 39% 29.78 in 10.0 mi SE 10.4 mph - N/A   Clear
1:53 AM 89.1 °F 92.9 °F 68.0 °F 50% 29.79 in 10.0 mi SE 10.4 mph - N/A   Clear
2:53 AM 87.1 °F 93.6 °F 72.0 °F 61% 29.79 in 10.0 mi SE 8.1 mph - N/A   Clear
3:53 AM 87.8 °F 92.6 °F 69.8 °F 55% 29.79 in 10.0 mi ESE 5.8 mph - N/A   Clear
4:53 AM 86.0 °F 90.7 °F 70.0 °F 59% 29.79 in 10.0 mi ESE 4.6 mph - N/A   Clear
5:53 AM 84.9 °F 88.8 °F 69.1 °F 59% 29.81 in 10.0 mi East 4.6 mph - N/A   Clear
6:53 AM 86.0 °F 90.7 °F 70.0 °F 59% 29.82 in 10.0 mi East 4.6 mph - N/A   Clear
7:53 AM 89.1 °F 93.7 °F 69.1 °F 52% 29.84 in 10.0 mi ESE 8.1 mph - N/A   Clear
8:53 AM 91.0 °F 96.6 °F 70.0 °F 50% 29.85 in 10.0 mi ESE 8.1 mph - N/A   Clear
9:53 AM 93.9 °F 98.6 °F 68.0 °F 43% 29.84 in 10.0 mi East 4.6 mph - N/A   Clear
10:53 AM 96.1 °F 99.3 °F 66.0 °F 37% 29.83 in 10.0 mi ESE 6.9 mph - N/A   Scattered Clouds
11:53 AM 100.0 °F 103.6 °F 64.9 °F 32% 29.82 in 10.0 mi SE 6.9 mph - N/A   Clear
12:53 PM 102.0 °F 104.6 °F 63.0 °F 28% 29.80 in 10.0 mi East 9.2 mph - N/A   Clear
1:53 PM 104.0 °F 106.0 °F 62.1 °F 25% 29.78 in 10.0 mi East 6.9 mph 18.4 mph N/A   Partly Cloudy
2:53 PM 104.0 °F 106.0 °F 62.1 °F 25% 29.76 in 10.0 mi SE 8.1 mph - N/A   Scattered Clouds
3:53 PM 106.0 °F 108.6 °F 62.1 °F 24% 29.73 in 10.0 mi ESE 8.1 mph - N/A   Scattered Clouds
4:53 PM 107.1 °F 110.4 °F 63.0 °F 24% 29.72 in 10.0 mi ENE 6.9 mph - N/A   Mostly Cloudy
5:53 PM 107.1 °F 110.4 °F 63.0 °F 24% 29.70 in 10.0 mi ESE 5.8 mph - N/A   Mostly Cloudy
6:53 PM 105.1 °F 107.8 °F 63.0 °F 25% 29.70 in 10.0 mi ESE 6.9 mph - N/A   Mostly Cloudy
7:53 PM 102.0 °F 104.6 °F 63.0 °F 28% 29.72 in 10.0 mi West 6.9 mph - N/A   Mostly Cloudy
8:53 PM 98.1 °F 96.1 °F 54.0 °F 23% 29.74 in 10.0 mi SW 8.1 mph - N/A   Partly Cloudy
9:53 PM 93.9 °F - 48.0 °F 21% 29.76 in 10.0 mi SW 6.9 mph - N/A   Clear
10:53 PM 89.1 °F - 46.9 °F 23% 29.77 in 10.0 mi West 6.9 mph - N/A   Clear
11:53 PM 91.0 °F - 45.0 °F 20% 29.78 in 10.0 mi WSW 9.2 mph - N/A   Clear